• Processing (Info)

  • MPEC 2013-T51 : 2013 TA6

    The following Minor Planet Electronic Circular may be linked-to from your own Web pages, but must not otherwise be redistributed electronically.

    A form allowing access to any MPEC is at the bottom of this page.


    Read MPEC 2013-T50 Read MPEC 2013-T52


    M.P.E.C. 2013-T51                                Issued 2013 Oct. 6, 22:27 UT
    
         The Minor Planet Electronic Circulars contain information on unusual
             minor planets and routine data on comets.  They are published
       on behalf of Commission 20 of the International Astronomical Union by the
              Minor Planet Center, Smithsonian Astrophysical Observatory,
                              Cambridge, MA 02138, U.S.A.
    
                 Prepared using the Tamkin Foundation Computer Network
    
                                  MPC@CFA.HARVARD.EDU
                URL http://www.minorplanetcenter.net/    ISSN 1523-6714
    
                                       2013 TA6
    
    Observations:
         K13T06A* C2013 10 04.33479 01 14 21.29 +20 08 29.5          19.4 VqET051G96
         K13T06A  C2013 10 04.34178 01 14 27.19 +20 06 45.4          19.6 VqET051G96
         K13T06A  C2013 10 04.34880 01 14 33.11 +20 05 00.6          19.4 VqET051G96
         K13T06A  C2013 10 04.35580 01 14 39.02 +20 03 16.1          19.6 VqET051G96
         K13T06A  C2013 10 04.44553 01 15 55.41 +19 40 42.1          20.1 VqET051G96
         K13T06A  C2013 10 04.45669 01 16 05.05 +19 37 52.6                qET051G96
         K13T06A  C2013 10 04.46795 01 16 14.58 +19 35 04.4                qET051G96
         K13T06A `C2013 10 04.63110201 18 46.25 +18 56 23.7          19.2 RqET051D90
         K13T06A `C2013 10 04.63418601 18 48.88 +18 55 36.7          19.3 RqET051D90
         K13T06A `C2013 10 04.63656901 18 50.86 +18 55 00.6          19.3 RqET051D90
         K13T06A KC2013 10 05.01598 01 24 28.62 +17 14 43.9          19.8 VqET051595
         K13T06A KC2013 10 05.03814 01 24 47.52 +17 08 55.3                qET051595
         K13T06A  C2013 10 05.37396 01 29 53.306+15 41 22.03         19.8 wLET051F51
         K13T06A  C2013 10 05.41483 01 30 27.671+15 30 32.40         20.1 wLET051F51
         K13T06A  C2013 10 05.42252 01 30 28.02 +15 27 59.7          19.7 VqET051G96
         K13T06A  C2013 10 05.42296 01 30 28.38 +15 27 52.4          20.1 VqET051G96
         K13T06A  C2013 10 05.42340 01 30 28.78 +15 27 44.8          19.9 VqET051G96
         K13T06A  C2013 10 05.42384 01 30 29.14 +15 27 38.2          19.9 VqET051G96
         K13T06A  C2013 10 05.42428 01 30 29.49 +15 27 31.3          19.8 VqET051G96
         K13T06A  C2013 10 06.17368 01 41 44.73 +12 04 08.3          20.9 RoET051926
         K13T06A  C2013 10 06.17601 01 41 46.67 +12 03 29.8          20.8 RoET051926
         K13T06A  C2013 10 06.17836 01 41 48.70 +12 02 52.0          20.9 RoET051926
    
    Observer details:
    595 Farra d'Isonzo.  Observer E. Pettarin.  0.61-m f/4.0 reflector + CCD.
    926 Tenagra II Observatory.  Observers M. Schwartz, P. R. Holvorcem.  0.81-m
        f/7 Ritchey-Chretien + CCD.
    D90 RAS Observatory, Moorook.  Observer K. Hills.  0.41-m f/9 Ritchey-Chretien
        + CCD.
    F51 Pan-STARRS 1, Haleakala.  Observers N. Primak, A. Schultz. T. Goggia,
        M. Willman.  Measurer PS1 Science Consortium.  1.8-m Ritchey-Chretien
        + CCD.
    G96 Mt. Lemmon Survey.  Observers J. A. Johnson, R. E. Hill.  Measurers
        A. Boattini, E. J. Christensen, A. R. Gibbs, A. D. Grauer, R. E. Hill,
        J. A. Johnson, R. A. Kowalski, S. M. Larson, F. C. Shelly.  1.5-m
        reflector + CCD.
    
    Orbital elements:
    2013 TA6                                                 Earth MOID = 0.0630 AU
    Epoch 2013 Sept. 25.0 TT = JDT 2456560.5                MPC
    M 352.51852              (2000.0)            P               Q
    n   0.37439744     Peri.  189.27744     +0.92020401     -0.38370498
    a   1.9065468      Node   194.06370     +0.37646570     +0.92170352
    e   0.4447963      Incl.   18.58022     +0.10722945     +0.05686037
    P   2.63           H   24.9           G   0.15
    From 22 observations 2013 Oct. 4-6.  E-assumed.
    
    Ephemeris:
    2013 TA6                 a,e,i = 1.91, 0.44, 19                  q = 1.0585
    Date    TT    R. A. (2000) Decl.     Delta      r     Elong.  Phase     V
    2013 09 06    21 34 08.5 +48 19 05   0.2224  1.1418   122.1    48.4    23.7
    ...
    2013 09 21    22 38 23.7 +46 14 36   0.1285  1.0914   130.2    44.6    22.3
    ...
    2013 09 29    23 59 01.3 +36 48 18   0.08583 1.0733   145.1    32.3    21.1
    ...
    2013 10 05    01 24 15.0 +17 20 08   0.06673 1.0643   163.8    15.2    20.0
    2013 10 06    01 39 03.9 +12 52 56   0.06555 1.0632   164.9    14.2    19.9
    2013 10 07    01 53 40.6 +08 15 28   0.06508 1.0623   164.0    15.0    19.9
    ...
    2013 10 13    03 10 58.9 -16 52 26   0.07627 1.0588   141.8    35.7    20.9
    ...
    2013 10 21    04 17 41.7 -33 49 11   0.1139  1.0606   122.3    52.5    22.2
    ...
    2013 11 05    05 10 19.3 -42 34 54   0.2005  1.0839   112.4    57.8    23.7
    
    A. U. Tomatic                (C) Copyright 2013 MPC           M.P.E.C. 2013-T51
    

    Read MPEC 2013-T50 Read MPEC 2013-T52


    MPEC number:

    Enter an MPEC number in one of the following forms:

    • 1997-B01 (the full form)
    • J97B01 (the packed version of the full form)
    • B01 (the abbreviated form)